星链-33919 (STARLINK-33919)

导读

STARLINK-33919是美国SpaceX星链星座的卫星,于2025年4月28日发射升空,是星链互联网星座组网计划的组成部分。星链项目旨在构建全球卫星互联网通信网络,为全球偏远地区等提供低时延、高速的网络接入服务,该卫星加入后进一步扩充了星链星座的覆盖与服务能力。

Basic Information
目录编号:
63699
目录名称:
STARLINK-33919
国际标识:
2025-087C
轨道中心:
EARTH
卫星名称:
星链-33919
卫星全名:
星链-33919 (STARLINK-33919)
卫星状态:
在轨 (已飞行412 天)
发射日期:
2025-04-28 UTC
国别 :
美国 (US)
星等 :
--
Orbit Information
数据来源 国际轨道数据 AOE轨道数据
星历时间 2026-06-13T23:09:02+0800
14小时前
查看轨道信息
2026-06-10T05:00:00+0800
4天前
查看轨道信息
半长轴 6853.311km 6853.299km
偏心率 0.0001551 0.0001154
轨道倾角 53.159° 53.157°
近地点辐角 88.627° 75.481°
升交点赤经 134.277° 151.726°
平近点角 271.491° 100.914°
近地点 474.111km 474.371km
远地点 476.237km 475.953km
周期 94.104分钟 94.104分钟
每日圈数 15.302138 15.302178
Detailed Information
固有亮度:
5
最大亮度:
2.5
卫星平台:
Starlink V1.0
覆盖范围:
全球
运营商:
太空探索技术公司
运营商所在国:
美国
制造商(研发单位):
太空探索技术公司
制造商所在国:
美国
使用方式:
暂无
Satellite Introduction
Starlink 计划是 SpaceX 推出的全球卫星互联网项目,通过发射低轨道卫星,为全球尤其是偏远地区提供高速、低延迟的互联网服务。自 2019 年起,Starlink 已部署数千颗卫星,旨在缩小全球数字鸿沟,推动互联网普及。该项目还为军事、航空等行业提供通信支持,带来广泛经济效益。
2D Orbit Map
3D Orbit Map
Orbit Altitude Analysis Chart
Orbit Inclination Analysis Chart
Orbit Comprehensive Analysis Chart
View Comprehensive Chart